This is the latest recevied weather packets stored in our database for station/object 9W2GDL-10. If no packets are shown the sender has not sent any weather packets the latest 10 day(s).
| Time | Temp. | Humidity | Pressure | Rain* | Wind** | Luminosity | Snow |
|---|---|---|---|---|---|---|---|
| 1787932978 | 28.89° C | 47% | 1012.5 hPa | - | - | - | - |
| 1787932377 | 28.89° C | 49% | 1012.5 hPa | - | - | - | - |
| 1787931776 | 28.89° C | 49% | 1012.5 hPa | - | - | - | - |
| 1787931175 | 28.33° C | 50% | 1012.4 hPa | - | - | - | - |
| 1787930575 | 29.44° C | 49% | 1012.5 hPa | - | - | - | - |
| 1787929974 | 30° C | 49% | 1012.5 hPa | - | - | - | - |
| 1787929373 | 30° C | 50% | 1012.4 hPa | - | - | - | - |
| 1787928772 | 30° C | 51% | 1012.4 hPa | - | - | - | - |
| 1787928171 | 30° C | 52% | 1012.4 hPa | - | - | - | - |
| 1787927570 | 30° C | 52% | 1012.2 hPa | - | - | - | - |
| 1787926969 | 30° C | 54% | 1012.2 hPa | - | - | - | - |
| 1787926369 | 30.56° C | 56% | 1012 hPa | - | - | - | - |
| 1787925768 | 30° C | 58% | 1011.8 hPa | - | - | - | - |
| 1787925167 | 30.56° C | 60% | 1011.8 hPa | - | - | - | - |
| 1787924566 | 33.33° C | 64% | 1011.5 hPa | - | - | - | - |
| 1787923994 | 32.78° C | 65% | 1011.4 hPa | - | - | - | - |
| 1787923393 | 32.78° C | 65% | 1011.3 hPa | - | - | - | - |
| 1787922792 | 33.33° C | 62% | 1011.1 hPa | - | - | - | - |
| 1787922191 | 32.78° C | 63% | 1011 hPa | - | - | - | - |
| 1787921590 | 32.78° C | 64% | 1010.9 hPa | - | - | - | - |
| 1787920990 | 32.78° C | 65% | 1010.7 hPa | - | - | - | - |
| 1787920389 | 32.78° C | 65% | 1010.7 hPa | - | - | - | - |
| 1787919788 | 32.78° C | 66% | 1010.5 hPa | - | - | - | - |
| 1787919187 | 32.78° C | 66% | 1010.5 hPa | - | - | - | - |
| 1787918586 | 33.33° C | 65% | 1010.3 hPa | - | - | - | - |
* Rain since midnight (hover to see other rain measurements)
** Current wind speed in m/s (hover to see current wind gust speed)